sat.trackr.live / text

‹ back to catalog

STARLINK-1558

NORAD 46035 · 2020-055J

PAYLOAD ACTIVE UNKNOWN

§ Identity

Operator
Country
US
Launch date
2020-08-07
Launch site
AFETR
Launch vehicle
Mass (kg)
RCS (m²)

Purposes: comms

External: N2YO · Heavens-Above · Gunter

§ Orbital elements

Epoch: 2026-09-19T20:30:26.801568Z

Period
94.01 min
Inclination
53.1611°
Eccentricity
0.0001269
Mean motion
15.31715719 rev/d
Perigee alt
469.8 km
Apogee alt
471.6 km
Semi-major
6,848.8 km
B*
8.6850e-6
RAAN
303.9510°
Arg perigee
60.6309°
Mean anomaly
299.4819°
Rev number
33,863

§ Raw data

STARLINK-15581 46035U 20055J   26262.85447687 -.00000096  00000+0  86850-5 0  99942 46035  53.1611 303.9510 0001269  60.6309 299.4819 15.31715719338635

JSON: /api/v1/satellites/46035 · /tle

For live sub-satellite position, see the globe view (requires WebGL).

§ Visibility from observer

Set your observer location to see the next 7 days of passes ≥ 10°. The values pass through the URL so the page stays shareable.

No JS? Fill the form by hand. The geolocation button needs JavaScript.